Time,TemperatureF,DewpointF,PressureIn,WindDirection,WindDirectionDegrees,WindSpeedMPH,WindSpeedGustMPH,Humidity,HourlyPrecipIn,Conditions,Clouds,dailyrainin,SoftwareType,DateUTC
2013-04-05 00:05:00,36.4,35.0,30.09,ESE,109,2.0,8.0,94,0.00,,,0.00,weatherlink.com 1.10,2013-04-05 04:05:00,
2013-04-05 00:20:00,36.3,35.0,30.09,ESE,123,5.0,6.0,94,0.00,,,0.00,weatherlink.com 1.10,2013-04-05 04:20:00,
2013-04-05 00:35:00,36.2,35.0,30.09,ESE,117,0.0,5.0,95,0.00,,,0.00,weatherlink.com 1.10,2013-04-05 04:35:00,
2013-04-05 00:50:00,36.1,35.0,30.09,ESE,112,4.0,4.0,95,0.00,,,0.00,weatherlink.com 1.10,2013-04-05 04:50:00,
2013-04-05 01:05:00,36.0,35.0,30.09,ESE,115,2.0,4.0,95,0.00,,,0.00,weatherlink.com 1.10,2013-04-05 05:05:00,
2013-04-05 01:20:00,36.0,35.0,30.09,ESE,103,3.0,8.0,95,0.00,,,0.00,weatherlink.com 1.10,2013-04-05 05:20:00,
2013-04-05 01:35:00,35.9,35.0,30.09,ESE,110,2.0,5.0,95,0.00,,,0.00,weatherlink.com 1.10,2013-04-05 05:35:00,
2013-04-05 01:50:00,36.1,35.0,30.09,ESE,122,2.0,5.0,95,0.00,,,0.00,weatherlink.com 1.10,2013-04-05 05:50:00,
2013-04-05 02:05:00,36.2,35.0,30.09,ESE,112,1.0,4.0,95,0.00,,,0.00,weatherlink.com 1.10,2013-04-05 06:05:00,
2013-04-05 02:20:00,36.4,35.0,30.09,ESE,110,1.0,3.0,95,0.00,,,0.00,weatherlink.com 1.10,2013-04-05 06:20:00,
2013-04-05 02:35:00,36.4,35.0,30.08,ESE,110,0.0,1.0,95,0.00,,,0.00,weatherlink.com 1.10,2013-04-05 06:35:00,
2013-04-05 02:50:00,36.4,35.0,30.08,SE,124,0.0,2.0,95,0.00,,,0.00,weatherlink.com 1.10,2013-04-05 06:50:00,
2013-04-05 03:05:00,36.4,35.0,30.09,SE,146,0.0,2.0,95,0.00,,,0.00,weatherlink.com 1.10,2013-04-05 07:05:00,
2013-04-05 03:20:00,36.4,35.0,30.09,SE,146,0.0,1.0,96,0.00,,,0.00,weatherlink.com 1.10,2013-04-05 07:20:00,
2013-04-05 03:35:00,36.5,36.0,30.09,SE,146,0.0,0.0,96,0.00,,,0.00,weatherlink.com 1.10,2013-04-05 07:35:00,
2013-04-05 03:50:00,36.5,36.0,30.09,SE,146,0.0,0.0,96,0.00,,,0.00,weatherlink.com 1.10,2013-04-05 07:50:00,
2013-04-05 04:05:00,36.5,36.0,30.08,SE,146,0.0,0.0,96,0.00,,,0.00,weatherlink.com 1.10,2013-04-05 08:05:00,
2013-04-05 04:21:00,36.6,36.0,30.08,SE,146,0.0,0.0,96,0.00,,,0.00,weatherlink.com 1.10,2013-04-05 08:21:00,
2013-04-05 04:36:00,36.7,36.0,30.07,SE,146,0.0,0.0,96,0.00,,,0.00,weatherlink.com 1.10,2013-04-05 08:36:00,
2013-04-05 04:51:00,36.9,36.0,30.07,SSE,165,2.0,2.0,96,0.00,,,0.00,weatherlink.com 1.10,2013-04-05 08:51:00,
2013-04-05 05:06:00,37.0,36.0,30.06,SSE,165,0.0,0.0,96,0.00,,,0.00,weatherlink.com 1.10,2013-04-05 09:06:00,
2013-04-05 05:21:00,37.1,36.0,30.07,WNW,300,1.0,4.0,96,0.00,,,0.00,weatherlink.com 1.10,2013-04-05 09:21:00,
2013-04-05 05:36:00,37.5,37.0,30.07,West,262,0.0,7.0,96,0.00,,,0.00,weatherlink.com 1.10,2013-04-05 09:36:00,
2013-04-05 05:51:00,38.9,38.0,30.07,WSW,245,2.0,13.0,95,0.00,,,0.00,weatherlink.com 1.10,2013-04-05 09:51:00,
2013-04-05 06:06:00,39.2,37.0,30.06,WSW,237,7.0,12.0,93,0.00,,,0.00,weatherlink.com 1.10,2013-04-05 10:06:00,
2013-04-05 06:21:00,38.9,37.0,30.06,WSW,252,2.0,13.0,92,0.00,,,0.00,weatherlink.com 1.10,2013-04-05 10:21:00,
2013-04-05 06:36:00,38.6,37.0,30.07,West,281,9.0,9.0,93,0.00,,,0.00,weatherlink.com 1.10,2013-04-05 10:36:00,
2013-04-05 06:51:00,38.7,37.0,30.09,North,355,3.0,12.0,92,0.00,,,0.00,weatherlink.com 1.10,2013-04-05 10:51:00,
2013-04-05 07:21:00,38.4,37.0,30.10,West,265,3.0,12.0,94,0.00,,,0.00,weatherlink.com 1.10,2013-04-05 11:21:00,
2013-04-05 08:06:00,38.8,37.0,30.13,West,259,2.0,7.0,93,0.00,,,0.00,weatherlink.com 1.10,2013-04-05 12:06:00,
2013-04-05 08:21:00,39.0,37.0,30.13,WSW,244,1.0,12.0,93,0.00,,,0.00,weatherlink.com 1.10,2013-04-05 12:21:00,
2013-04-05 08:36:00,38.9,37.0,30.14,West,263,7.0,10.0,93,0.00,,,0.00,weatherlink.com 1.10,2013-04-05 12:36:00,
2013-04-05 08:51:00,39.0,37.0,30.14,West,259,1.0,13.0,93,0.00,,,0.00,weatherlink.com 1.10,2013-04-05 12:51:00,
2013-04-05 09:06:00,39.3,38.0,30.14,West,271,3.0,10.0,93,0.00,,,0.00,weatherlink.com 1.10,2013-04-05 13:06:00,
2013-04-05 09:36:00,40.3,38.0,30.14,West,267,3.0,13.0,91,0.00,,,0.00,weatherlink.com 1.10,2013-04-05 13:36:00,
2013-04-05 09:51:00,40.7,39.0,30.15,West,269,5.0,11.0,92,0.00,,,0.00,weatherlink.com 1.10,2013-04-05 13:51:00,
2013-04-05 10:06:00,41.1,38.0,30.15,WNW,298,7.0,14.0,90,0.00,,,0.00,weatherlink.com 1.10,2013-04-05 14:06:00,
2013-04-05 10:21:00,41.4,39.0,30.14,WSW,253,1.0,11.0,91,0.00,,,0.00,weatherlink.com 1.10,2013-04-05 14:21:00,
2013-04-05 10:36:00,42.8,40.0,30.15,West,271,0.0,5.0,88,0.00,,,0.00,weatherlink.com 1.10,2013-04-05 14:36:00,
2013-04-05 10:51:00,42.9,39.0,30.15,South,184,2.0,9.0,87,0.00,,,0.00,weatherlink.com 1.10,2013-04-05 14:51:00,
2013-04-05 11:06:00,43.4,40.0,30.16,WSW,254,4.0,12.0,88,0.00,,,0.00,weatherlink.com 1.10,2013-04-05 15:06:00,
2013-04-05 11:21:00,43.4,40.0,30.16,WSW,255,4.0,10.0,86,0.00,,,0.00,weatherlink.com 1.10,2013-04-05 15:21:00,
2013-04-05 11:36:00,44.7,41.0,30.15,WSW,248,8.0,16.0,86,0.00,,,0.00,weatherlink.com 1.10,2013-04-05 15:36:00,
2013-04-05 11:51:00,45.4,41.0,30.15,WNW,292,3.0,17.0,84,0.00,,,0.00,weatherlink.com 1.10,2013-04-05 15:51:00,
2013-04-05 12:06:00,46.3,41.0,30.15,West,273,3.0,12.0,83,0.00,,,0.00,weatherlink.com 1.10,2013-04-05 16:06:00,
2013-04-05 12:22:00,46.8,41.0,30.14,WSW,254,3.0,13.0,81,0.00,,,0.00,weatherlink.com 1.10,2013-04-05 16:22:00,
2013-04-05 12:37:00,47.1,42.0,30.14,West,273,4.0,13.0,82,0.00,,,0.00,weatherlink.com 1.10,2013-04-05 16:37:00,
2013-04-05 12:52:00,48.5,42.0,30.14,WNW,299,1.0,12.0,79,0.00,,,0.00,weatherlink.com 1.10,2013-04-05 16:52:00,
2013-04-05 13:07:00,49.3,42.0,30.14,WSW,258,7.0,12.0,75,0.00,,,0.00,weatherlink.com 1.10,2013-04-05 17:07:00,
2013-04-05 13:22:00,49.6,42.0,30.13,WNW,286,6.0,16.0,76,0.00,,,0.00,weatherlink.com 1.10,2013-04-05 17:22:00,
2013-04-05 13:37:00,50.9,43.0,30.13,WNW,283,3.0,14.0,73,0.00,,,0.00,weatherlink.com 1.10,2013-04-05 17:37:00,
2013-04-05 13:52:00,51.3,44.0,30.12,South,169,1.0,11.0,75,0.00,,,0.00,weatherlink.com 1.10,2013-04-05 17:52:00,
2013-04-05 14:07:00,51.4,43.0,30.12,WSW,242,5.0,8.0,72,0.00,,,0.00,weatherlink.com 1.10,2013-04-05 18:07:00,
2013-04-05 14:27:00,51.5,40.0,30.12,NW,323,1.0,10.0,65,0.00,,,0.00,weatherlink.com 1.10,2013-04-05 18:27:00,
2013-04-05 14:52:00,52.2,41.0,30.11,NW,325,3.0,9.0,65,0.00,,,0.00,weatherlink.com 1.10,2013-04-05 18:52:00,
2013-04-05 15:07:00,53.0,41.0,30.11,WSW,254,10.0,10.0,65,0.00,,,0.00,weatherlink.com 1.10,2013-04-05 19:07:00,
2013-04-05 15:22:00,52.9,40.0,30.11,SW,233,7.0,11.0,63,0.00,,,0.00,weatherlink.com 1.10,2013-04-05 19:22:00,
2013-04-05 15:37:00,53.4,40.0,30.11,WNW,292,2.0,10.0,62,0.00,,,0.00,weatherlink.com 1.10,2013-04-05 19:37:00,
2013-04-05 15:52:00,53.1,40.0,30.11,ESE,115,3.0,9.0,62,0.00,,,0.00,weatherlink.com 1.10,2013-04-05 19:52:00,
2013-04-05 16:07:00,53.3,40.0,30.10,West,265,3.0,9.0,62,0.00,,,0.00,weatherlink.com 1.10,2013-04-05 20:07:00,
2013-04-05 16:22:00,53.6,40.0,30.10,West,276,2.0,12.0,61,0.00,,,0.00,weatherlink.com 1.10,2013-04-05 20:22:00,
2013-04-05 16:37:00,53.4,38.0,30.11,NW,304,4.0,15.0,57,0.00,,,0.00,weatherlink.com 1.10,2013-04-05 20:37:00,
2013-04-05 16:52:00,53.9,38.0,30.10,West,261,6.0,17.0,55,0.00,,,0.00,weatherlink.com 1.10,2013-04-05 20:52:00,
2013-04-05 17:07:00,54.2,38.0,30.11,NW,306,2.0,13.0,55,0.00,,,0.00,weatherlink.com 1.10,2013-04-05 21:07:00,
2013-04-05 17:22:00,54.1,36.0,30.11,WNW,301,3.0,14.0,50,0.00,,,0.00,weatherlink.com 1.10,2013-04-05 21:22:00,
2013-04-05 17:37:00,54.3,37.0,30.12,WSW,257,5.0,9.0,53,0.00,,,0.00,weatherlink.com 1.10,2013-04-05 21:37:00,
2013-04-05 17:52:00,54.2,37.0,30.12,WNW,287,0.0,9.0,53,0.00,,,0.00,weatherlink.com 1.10,2013-04-05 21:52:00,
2013-04-05 18:07:00,54.2,37.0,30.13,WSW,257,0.0,9.0,53,0.00,,,0.00,weatherlink.com 1.10,2013-04-05 22:07:00,
2013-04-05 18:22:00,53.9,38.0,30.13,West,262,3.0,7.0,55,0.00,,,0.00,weatherlink.com 1.10,2013-04-05 22:22:00,
2013-04-05 18:37:00,53.6,36.0,30.13,West,265,3.0,12.0,52,0.00,,,0.00,weatherlink.com 1.10,2013-04-05 22:37:00,
2013-04-05 18:52:00,53.2,36.0,30.14,West,267,3.0,11.0,53,0.00,,,0.00,weatherlink.com 1.10,2013-04-05 22:52:00,
2013-04-05 19:07:00,53.0,37.0,30.14,WSW,237,3.0,11.0,54,0.00,,,0.00,weatherlink.com 1.10,2013-04-05 23:07:00,
2013-04-05 19:22:00,52.6,37.0,30.14,WSW,244,1.0,7.0,55,0.00,,,0.00,weatherlink.com 1.10,2013-04-05 23:22:00,
2013-04-05 19:37:00,52.1,36.0,30.15,SW,226,0.0,12.0,55,0.00,,,0.00,weatherlink.com 1.10,2013-04-05 23:37:00,
2013-04-05 19:52:00,51.6,36.0,30.16,WSW,252,0.0,7.0,55,0.00,,,0.00,weatherlink.com 1.10,2013-04-05 23:52:00,
2013-04-05 20:07:00,51.4,36.0,30.16,SW,228,1.0,7.0,55,0.00,,,0.00,weatherlink.com 1.10,2013-04-06 00:07:00,
2013-04-05 20:22:00,50.8,36.0,30.16,WSW,242,1.0,6.0,58,0.00,,,0.00,weatherlink.com 1.10,2013-04-06 00:22:00,
2013-04-05 20:37:00,50.4,36.0,30.17,WSW,242,3.0,6.0,59,0.00,,,0.00,weatherlink.com 1.10,2013-04-06 00:37:00,
2013-04-05 20:52:00,50.2,36.0,30.17,WSW,242,4.0,8.0,59,0.00,,,0.00,weatherlink.com 1.10,2013-04-06 00:52:00,
2013-04-05 21:07:00,50.3,36.0,30.18,West,259,4.0,9.0,58,0.00,,,0.00,weatherlink.com 1.10,2013-04-06 01:07:00,
2013-04-05 21:22:00,50.3,36.0,30.18,West,262,2.0,7.0,58,0.00,,,0.00,weatherlink.com 1.10,2013-04-06 01:22:00,
2013-04-05 21:37:00,50.3,36.0,30.19,WSW,246,1.0,7.0,58,0.00,,,0.00,weatherlink.com 1.10,2013-04-06 01:37:00,
2013-04-05 21:53:00,49.5,36.0,30.19,WSW,252,3.0,6.0,60,0.00,,,0.00,weatherlink.com 1.10,2013-04-06 01:53:00,
2013-04-05 22:07:00,49.0,35.0,30.19,West,261,0.0,6.0,60,0.00,,,0.00,weatherlink.com 1.10,2013-04-06 02:07:00,
2013-04-05 22:22:00,48.5,35.0,30.20,WSW,250,0.0,8.0,61,0.00,,,0.00,weatherlink.com 1.10,2013-04-06 02:22:00,
2013-04-05 22:37:00,48.2,35.0,30.20,WSW,242,0.0,3.0,61,0.00,,,0.00,weatherlink.com 1.10,2013-04-06 02:37:00,
2013-04-05 22:52:00,47.5,35.0,30.20,WSW,242,0.0,2.0,63,0.00,,,0.00,weatherlink.com 1.10,2013-04-06 02:52:00,
2013-04-05 23:07:00,46.8,35.0,30.20,SSE,153,2.0,4.0,64,0.00,,,0.00,weatherlink.com 1.10,2013-04-06 03:07:00,
2013-04-05 23:22:00,46.6,35.0,30.19,SE,142,0.0,5.0,64,0.00,,,0.00,weatherlink.com 1.10,2013-04-06 03:22:00,
2013-04-05 23:37:00,46.3,35.0,30.20,SE,142,0.0,1.0,65,0.00,,,0.00,weatherlink.com 1.10,2013-04-06 03:37:00,
2013-04-05 23:52:00,46.2,35.0,30.20,SSW,192,0.0,2.0,65,0.00,,,0.00,weatherlink.com 1.10,2013-04-06 03:52:00,